Wind_Speed
67 68 68 67 67 65 65 65 64 63 62 62 64 65 66 67 68 68 69 70 71 72 74 75 77 79 80 82 83 83 84 84 85 86 87 87 88 90
70 70 69 69 67 65 66 65 65 64 63 62 64 65 67 68 69 70 70 71 72 73 75 76 78 79 80 80 80 80 80 79 79 79 79 79 80 81
71 71 69 68 66 65 65 65 65 65 65 63 64 65 67 69 70 71 71 71 72 73 74 76 77 78 78 78 77 76 75 74 73 72 72 72 73 73
70 69 67 65 63 64 64 65 65 66 66 64 64 66 68 69 70 70 71 71 72 72 73 74 75 75 74 74 73 72 70 69 68 68 67 67 67 67
66 64 63 62 62 63 64 64 65 66 66 65 65 67 68 69 70 70 70 70 71 71 71 71 71 71 70 69 68 67 67 66 65 64 63 63 63 62
62 61 61 61 61 62 63 63 64 65 65 65 66 66 66 67 69 69 69 69 69 69 69 69 68 68 66 65 65 64 63 62 61 60 60 58 58 58
60 59 60 60 60 62 62 62 64 64 65 65 65 65 65 66 67 68 68 68 67 66 67 66 67 66 63 61 61 60 60 59 58 57 55 53 53 54
58 58 58 59 59 61 62 63 64 64 63 64 64 63 64 65 66 67 67 67 65 62 65 64 64 62 60 59 58 57 56 55 54 52 50 49 49 52
58 58 57 58 59 60 61 62 62 61 61 62 62 62 63 63 65 64 64 64 62 60 63 61 59 58 57 56 55 54 53 51 50 47 46 46 48 55
57 57 57 57 58 58 59 60 60 59 60 61 61 61 61 61 62 62 62 61 59 57 59 60 56 55 54 53 53 52 50 48 46 43 42 43 49 58
56 56 56 57 57 58 58 58 57 57 59 59 59 58 58 58 59 59 59 59 56 53 55 57 54 53 51 50 49 49 47 44 42 39 38 42 53 61
55 55 55 55 56 56 56 55 54 55 56 56 56 56 55 55 55 55 56 56 54 50 50 53 52 52 49 45 45 45 43 40 36 34 36 43 57 64
54 53 53 54 54 54 53 52 52 52 53 53 52 52 51 51 51 50 51 52 51 49 48 49 48 48 47 43 41 42 40 35 31 30 35 46 59 67
52 52 53 53 52 51 50 50 50 50 50 50 49 49 48 48 47 47 48 47 48 47 45 46 45 45 44 41 39 37 35 30 26 27 36 48 61 68
51 51 51 50 49 48 47 47 47 48 47 47 47 46 46 45 44 44 44 44 43 42 43 43 42 41 41 40 36 33 29 24 22 26 37 50 63 68
50 50 48 47 46 45 44 44 45 45 44 44 44 43 43 42 42 42 41 40 38 38 40 40 39 38 38 36 33 30 25 19 19 27 39 53 64 68
49 47 45 43 42 41 41 41 42 42 41 41 41 41 40 40 39 40 39 37 36 35 36 36 36 35 34 32 29 25 20 15 17 28 42 54 64 67
45 43 41 40 39 38 38 38 38 38 39 39 39 39 38 37 37 37 37 34 33 33 33 32 31 31 30 28 25 20 15 12 18 32 46 57 64 66
40 38 36 35 35 34 35 35 35 36 36 36 36 36 35 35 35 34 34 32 31 31 31 30 28 28 26 24 21 17 10 10 20 35 48 57 63 66
35 33 32 32 32 32 32 33 33 33 34 34 34 33 33 33 32 32 31 30 28 28 28 27 26 25 24 20 17 13 7 10 23 36 49 59 63 67
32 30 30 30 30 30 29 30 31 31 31 31 31 31 31 31 30 30 29 27 26 25 25 25 24 23 21 17 13 9 4 12 25 38 51 59 63 67
30 29 29 29 28 27 27 28 28 29 29 29 29 29 29 28 28 28 26 25 24 24 23 22 21 19 17 13 9 5 4 14 27 40 52 59 63 69
28 28 28 27 26 25 25 26 26 27 27 27 28 27 27 27 27 26 24 23 22 21 21 19 17 15 13 9 6 1 6 16 27 40 52 59 65 71
Wind_Direction
294 295 295 296 295 294 294 293 292 293 293 293 293 293 294 295 295 294 295 294 294 293 293 292 292 292 291 290 288 286 284 282 279 276 272 267 263 258
293 294 294 294 294 293 293 292 292 293 292 293 293 294 295 295 296 296 296 296 295 295 295 295 295 294 293 292 290 288 285 283 279 276 271 267 262 256
292 292 292 292 292 292 292 292 292 292 292 292 293 295 296 296 296 297 297 297 297 297 297 297 297 296 295 294 292 290 286 283 279 275 271 267 261 254
291 291 291 291 290 291 291 291 292 292 292 293 294 295 296 296 297 298 298 298 298 299 298 298 298 297 297 296 293 290 287 284 280 276 271 267 260 252
291 291 290 290 291 291 291 292 292 292 293 293 294 295 296 297 297 298 299 299 299 300 300 299 298 298 298 296 293 290 288 285 281 277 271 267 257 248
291 291 291 291 291 291 291 292 292 293 294 294 295 296 297 297 297 298 299 300 300 301 300 300 300 300 300 297 294 291 288 285 281 277 271 264 253 244
291 291 291 291 292 292 292 292 293 293 294 295 296 297 297 297 297 299 300 301 302 302 301 302 301 301 300 298 295 292 289 286 281 277 270 258 248 238
292 292 292 292 292 293 293 294 294 294 294 295 296 297 297 297 298 299 301 302 303 303 302 303 303 303 302 300 298 294 289 285 281 275 266 252 242 227
293 293 293 293 293 294 294 294 295 295 295 295 296 297 298 298 299 300 302 303 306 306 304 305 305 305 304 303 300 296 291 287 282 273 262 247 233 215
293 293 293 294 294 294 294 295 295 295 295 295 297 298 299 299 301 302 303 304 307 307 306 307 308 308 307 305 302 298 293 289 282 270 257 240 221 207
293 294 294 293 293 293 294 295 295 295 295 296 298 299 300 300 301 303 304 306 309 310 308 308 310 310 310 308 303 300 295 289 280 267 251 232 211 201
294 294 294 294 293 293 294 295 295 295 295 296 298 299 300 301 302 304 306 308 310 311 309 308 311 311 312 310 306 302 297 290 278 263 242 220 203 197
295 295 295 294 294 294 294 295 295 295 296 297 297 298 299 300 302 304 306 308 311 313 311 311 313 314 314 314 309 304 300 291 274 253 229 209 198 193
296 296 296 295 295 295 294 294 294 295 296 297 297 298 299 301 303 305 307 309 312 314 313 314 316 316 316 316 313 308 303 290 269 241 216 203 194 190
298 298 297 296 295 294 294 293 294 295 296 297 298 299 301 302 304 306 308 311 313 314 315 316 317 318 318 318 317 312 304 287 259 227 207 198 192 186
300 300 298 296 295 294 293 293 294 295 296 297 298 300 302 304 305 307 310 311 312 313 315 316 317 318 320 320 319 315 305 282 245 215 199 192 188 184
301 300 299 297 295 293 292 293 294 295 296 298 299 301 303 305 307 309 311 311 312 314 315 316 317 319 322 323 321 317 305 274 231 204 193 188 185 182
303 301 298 296 294 293 293 293 294 295 297 298 300 303 305 307 309 310 312 312 312 314 316 317 317 319 322 324 322 319 304 261 214 195 188 185 182 180
305 302 299 297 295 294 294 294 294 296 297 300 302 304 307 309 311 312 312 312 313 315 318 318 319 321 323 324 323 321 299 235 199 189 185 183 181 180
305 304 301 299 297 295 294 295 295 297 299 302 304 307 309 311 313 314 314 312 313 315 318 319 320 323 325 325 324 321 294 210 191 185 183 181 180 179
306 304 302 300 299 296 295 296 296 299 301 304 306 309 311 313 315 316 316 314 315 316 319 319 320 323 326 327 327 323 272 197 188 184 182 181 181 179
306 304 301 300 299 297 297 297 299 302 304 307 309 311 313 315 316 317 317 316 316 318 319 320 321 324 326 328 328 323 205 187 185 184 182 181 181 180
307 305 303 302 300 298 299 300 302 305 307 309 312 314 315 317 318 318 318 318 318 320 322 323 325 327 329 329 328 294 178 180 182 183 183 181 181 181
Height
5610 5604 5599 5594 5588 5583 5578 5573 5569 5565 5563 5558 5551 5545 5539 5534 5528 5523 5517 5511 5504 5498 5491 5484 5477 5470 5462 5454 5447 5439 5432 5426 5420 5415 5412 5411 5412 5415
5592 5587 5582 5577 5571 5566 5561 5556 5551 5547 5544 5541 5534 5527 5520 5514 5508 5503 5497 5490 5482 5474 5467 5459 5450 5442 5434 5425 5417 5409 5401 5394 5388 5383 5379 5377 5377 5380
5574 5569 5564 5559 5554 5549 5544 5539 5534 5529 5525 5523 5516 5509 5502 5495 5489 5482 5475 5468 5460 5451 5442 5434 5424 5415 5405 5396 5387 5379 5371 5365 5358 5353 5350 5348 5347 5350
5556 5551 5547 5541 5537 5532 5527 5522 5517 5511 5507 5504 5499 5491 5484 5476 5469 5462 5455 5447 5438 5429 5420 5410 5399 5389 5379 5369 5359 5351 5343 5337 5331 5326 5322 5321 5320 5322
5538 5533 5529 5524 5520 5515 5509 5504 5499 5493 5489 5485 5481 5473 5465 5456 5449 5442 5434 5426 5417 5407 5398 5387 5377 5366 5356 5345 5335 5326 5318 5311 5305 5300 5297 5295 5295 5298
5521 5517 5512 5507 5502 5497 5492 5487 5481 5476 5470 5465 5461 5455 5447 5437 5428 5422 5415 5406 5396 5385 5375 5365 5355 5344 5334 5322 5312 5303 5294 5287 5281 5277 5273 5272 5273 5277
5505 5500 5495 5490 5485 5480 5474 5469 5463 5458 5452 5447 5442 5435 5428 5418 5409 5401 5394 5386 5377 5364 5353 5345 5333 5324 5314 5302 5291 5282 5273 5266 5260 5255 5252 5252 5254 5258
5489 5484 5478 5473 5468 5462 5457 5451 5445 5440 5434 5428 5422 5416 5409 5399 5390 5382 5373 5365 5359 5348 5332 5325 5313 5303 5293 5282 5272 5262 5253 5246 5240 5235 5233 5234 5237 5242
5472 5467 5462 5457 5451 5445 5439 5433 5428 5422 5416 5410 5405 5398 5390 5381 5372 5364 5354 5344 5337 5326 5312 5306 5295 5284 5274 5263 5253 5243 5234 5227 5221 5218 5216 5218 5222 5230
5456 5450 5445 5440 5434 5428 5422 5417 5411 5404 5398 5391 5387 5380 5371 5362 5352 5344 5335 5327 5320 5309 5293 5284 5278 5268 5258 5247 5235 5225 5217 5210 5205 5202 5201 5204 5210 5220
5440 5434 5429 5423 5417 5410 5406 5401 5395 5388 5380 5374 5369 5362 5353 5345 5335 5327 5318 5309 5303 5296 5279 5267 5260 5251 5243 5232 5220 5209 5201 5195 5190 5188 5188 5192 5200 5210
5423 5418 5412 5406 5400 5393 5389 5385 5379 5373 5366 5360 5353 5346 5338 5329 5320 5311 5302 5294 5286 5280 5269 5255 5246 5235 5228 5220 5207 5196 5188 5182 5177 5175 5177 5182 5191 5203
5406 5401 5395 5389 5383 5378 5373 5369 5364 5358 5352 5346 5339 5332 5324 5316 5308 5299 5290 5280 5272 5265 5255 5243 5234 5223 5213 5207 5197 5185 5177 5170 5166 5166 5168 5174 5185 5198
5390 5384 5379 5373 5367 5362 5357 5353 5348 5343 5338 5332 5326 5319 5311 5304 5296 5287 5279 5269 5260 5251 5243 5232 5223 5213 5203 5195 5186 5177 5168 5161 5158 5158 5161 5169 5180 5195
5374 5368 5363 5357 5352 5347 5343 5338 5333 5329 5324 5319 5313 5306 5299 5291 5284 5276 5268 5259 5251 5241 5232 5223 5214 5205 5195 5186 5178 5169 5161 5156 5152 5153 5157 5165 5178 5194
5357 5352 5347 5342 5337 5333 5329 5324 5320 5316 5311 5306 5300 5294 5287 5280 5272 5265 5258 5250 5243 5235 5225 5216 5207 5198 5189 5180 5171 5163 5156 5152 5150 5151 5156 5165 5178 5194
5341 5337 5332 5328 5324 5320 5316 5312 5307 5303 5298 5294 5288 5282 5276 5269 5262 5255 5248 5240 5233 5227 5219 5210 5201 5193 5185 5176 5168 5160 5154 5150 5149 5150 5157 5168 5181 5197
5327 5322 5318 5314 5310 5307 5304 5300 5296 5292 5287 5282 5277 5271 5265 5259 5253 5246 5238 5232 5225 5219 5212 5204 5197 5189 5182 5174 5166 5159 5154 5150 5150 5153 5160 5172 5186 5201
5315 5310 5306 5302 5299 5296 5293 5289 5286 5282 5277 5272 5267 5262 5256 5250 5243 5237 5230 5224 5218 5212 5205 5198 5191 5185 5179 5172 5165 5159 5154 5152 5153 5157 5165 5176 5190 5205
5304 5300 5296 5293 5289 5286 5283 5280 5276 5272 5268 5263 5258 5252 5247 5241 5235 5229 5222 5217 5211 5206 5200 5193 5187 5181 5175 5170 5165 5160 5156 5154 5157 5162 5170 5181 5193 5207
5295 5291 5288 5284 5280 5277 5274 5271 5267 5263 5259 5254 5249 5244 5238 5233 5227 5221 5216 5210 5205 5200 5195 5190 5184 5178 5173 5168 5165 5161 5159 5158 5161 5166 5175 5186 5198 5211
5287 5283 5279 5276 5272 5269 5266 5263 5259 5255 5251 5246 5241 5236 5231 5225 5220 5215 5210 5205 5200 5195 5191 5186 5181 5176 5172 5168 5165 5163 5162 5162 5165 5172 5181 5191 5202 5217
5279 5275 5272 5268 5265 5262 5259 5255 5252 5248 5243 5239 5234 5229 5224 5219 5214 5209 5204 5200 5196 5192 5187 5183 5179 5175 5172 5169 5167 5165 5165 5167 5170 5177 5187 5196 5207 5219